FW3590 Weather Reports


time (UTC)temp
C
wind
direction
speed
KPH
gust
KPH
rain 1hr
cm
rain 24hr
cm
rain mn
cm
humidity
%
barometer
mb
20260506181620 8 67 12.9 17.7 0.23 8.41 4.47 96 1007.5
20260506180053 8 45 9.7 24.1 0.20 8.33 4.39 96 1007.5
20260506174550 8 61 12.9 19.3 0.15 8.33 4.32 96 1007.1
20260506173058 8 36 11.3 19.3 0.18 8.31 4.29 96 1007.1
20260506171549 8 30 14.5 19.3 0.13 8.23 4.22 96 1007.1
20260506170050 8 48 11.3 16.1 0.13 8.23 4.19 96 1006.9
20260506164549 8 49 9.7 20.9 0.18 8.56 4.17 96 1007.0
20260506163050 8 23 11.3 17.7 0.23 8.51 4.09 96 1007.0
20260506161548 8 49 11.3 17.7 0.28 8.51 4.09 96 1007.1
20260506160052 8 41 11.3 22.5 0.28 8.48 4.09 96 1007.0
20260506154547 8 38 12.9 20.9 0.23 8.79 3.99 96 1007.1
20260506153106 8 39 6.4 17.7 0.18 8.69 3.89 96 1007.1
20260506151545 8 67 14.5 19.3 0.15 8.61 3.81 96 1007.1
20260506150053 8 33 11.3 17.7 0.13 8.61 3.81 96 1007.1
20260506144549 8 32 11.3 20.9 0.10 8.89 3.76 96 1007.1
20260506143042 8 21 11.3 16.1 0.18 8.81 3.68 96 1006.8
20260506141541 8 46 11.3 17.7 0.30 8.81 3.68 96 1006.9
20260506140041 8 40 11.3 19.3 0.46 8.81 3.68 96 1006.9
20260506134540 8 48 11.3 22.5 0.69 8.92 3.66 96 1006.8
20260506133042 8 53 14.5 20.9 0.69 8.76 3.51 96 1006.7
20260506131541 8 37 11.3 24.1 0.64 8.64 3.38 95 1006.7
20260506130038 8 51 12.9 22.5 0.56 8.48 3.23 95 1006.6
20260506124536 8 78 14.5 20.9 0.53 8.36 2.97 95 1006.6
20260506123037 8 55 14.5 22.5 0.43 8.20 2.82 95 1006.6
20260506121535 8 57 9.7 17.7 0.61 8.13 2.74 96 1006.4
20260506120039 8 73 17.7 24.1 0.51 8.05 2.67 96 1006.4
20260506114536 8 88 9.7 22.5 0.30 8.18 2.44 96 1006.4
20260506113040 8 70 11.3 22.5 0.23 8.05 2.31 96 1006.4
20260506111533 8 82 11.3 16.1 0.08 7.87 2.13 96 1006.4
20260506110033 7 72 11.3 17.7 0.10 7.87 2.13 96 1006.4
20260506104534 7 46 12.9 20.9 0.18 7.87 2.13 96 1006.4
20260506103031 7 71 12.9 19.3 0.15 7.82 2.08 96 1006.5
20260506101530 7 65 8.0 16.1 0.23 7.80 2.06 96 1006.3
20260506100028 7 64 16.1 20.9 0.25 7.77 2.03 96 1006.3
20260506094527 7 73 16.1 24.1 0.23 7.80 1.96 96 1006.3
20260506093025 7 63 11.3 22.5 0.25 7.77 1.93 96 1006.1
20260506091523 7 51 11.3 20.9 0.18 7.67 1.83 95 1006.2
20260506090024 7 75 12.9 20.9 0.15 7.62 1.78 96 1006.2
20260506084521 6 71 12.9 19.3 0.10 7.57 1.73 96 1006.2
20260506083020 6 62 8.0 19.3 0.05 7.54 1.68 95 1006.1
20260506081521 6 51 9.7 17.7 0.03 7.49 1.65 95 1006.1
20260506073018 6 61 8.0 12.9 0.03 7.49 1.63 95 1005.9
20260506071518 6 55 9.7 16.1 0.05 7.49 1.63 95 1005.8
20260506061515 6 51 14.5 22.5 0.23 7.49 1.57 95 1005.4
20260506044558 7 44 11.3 16.1 0.05 8.05 1.30 94 1005.4
20260506043057 7 45 9.7 19.3 0.05 8.05 1.30 94 1005.5
20260506041553 8 49 6.4 11.3 0.05 8.05 1.27 95 1005.5
20260506040051 8 63 9.7 17.7 0.05 8.05 1.27 94 1005.5
20260506034602 8 68 11.3 16.1 0.10 8.33 1.27 94 1005.6
20260506033048 8 59 9.7 14.5 0.08 8.31 1.24 94 1005.7
20260506031547 8 61 9.7 16.1 0.08 8.31 1.24 94 1005.7
20260506030047 8 79 9.7 16.1 0.08 8.31 1.24 94 1005.8
20260506024602 8 61 8.0 14.5 0.00 8.23 1.17 93 1005.9
20260506023041 8 72 8.0 14.5 0.05 8.23 1.17 93 1005.9
20260506021538 8 90 9.7 14.5 0.05 8.23 1.17 92 1006.1
20260506020034 8 71 9.7 14.5 0.05 8.23 1.17 92 1006.0
20260506014532 8 63 9.7 16.1 0.20 8.28 1.17 91 1006.2
20260506013039 9 72 9.7 14.5 0.48 8.23 1.12 90 1006.1
20260506011526 9 67 8.0 19.3 0.48 8.23 1.12 89 1006.3
20260506010029 10 73 12.9 22.5 0.61 8.23 1.09 87 1006.3
20260506004522 10 65 11.3 25.7 0.58 8.05 0.91 86 1006.4
20260506003019 10 93 9.7 17.7 0.30 7.77 0.64 88 1006.5
20260506001520 10 56 9.7 17.7 0.30 7.77 0.64 89 1006.6
20260506000014 10 64 12.9 16.1 0.15 7.57 0.43 90 1006.7
20260505234513 10 84 8.0 17.7 0.05 7.47 0.33 90 1006.9
20260505233018 10 53 9.7 14.5 0.18 7.47 0.33 90 1007.0
20260505231511 10 72 8.0 14.5 0.33 7.47 0.33 90 1007.1
20260505230025 10 74 8.0 14.5 0.28 7.39 0.28 91 1007.1
20260505224506 10 69 11.3 17.7 0.46 7.39 0.28 91 1007.2
20260505223004 10 53 8.0 16.1 0.61 7.29 0.15 91 1007.3
20260505221502 10 77 11.3 14.5 0.89 7.14 0.03 91 1007.3
20260505220108 10 73 8.0 16.1 1.09 7.11 0.00 91 1007.3
20260505214557 10 72 14.5 24.1 1.22 6.93 6.93 91 1007.5
20260505213100 10 75 11.3 22.5 1.27 6.65 6.65 91 1007.7
20260505211555 10 89 12.9 19.3 1.22 6.25 6.25 91 1007.8
20260505210054 10 74 11.3 20.9 1.22 5.94 5.94 92 1007.8
20260505204601 10 75 12.9 22.5 1.40 5.71 5.71 92 1008.0
20260505203057 11 69 9.7 19.3 1.09 5.38 5.38 92 1007.8
20260505201551 11 59 11.3 19.3 1.07 5.03 5.03 92 1007.8
20260505200050 11 67 12.9 22.5 0.97 4.72 4.72 92 1007.8
20260505194602 11 39 9.7 14.5 0.81 6.07 4.32 92 1007.7
20260505193047 11 77 12.9 19.3 0.79 6.02 4.27 93 1007.8
20260505191546 11 75 12.9 19.3 0.79 5.71 3.96 93 1007.6
20260505190044 11 82 9.7 17.7 0.56 5.51 3.73 92 1007.6
20260505184544 11 75 8.0 14.5 0.33 5.23 3.51 93 1007.7
20260505183049 11 63 11.3 19.3 0.28 5.23 3.45 93 1007.8